• Join FlightAware (Why Join?)
  • Login
  • US Flag GB Flag 
02:55 EDT


 

Airport Tracker/Info


-or-


 

Live Flight TrackerFlight Track Log ✈ N27XP ✈ 03-Oct-2013 ✈ KLAF - KSOP

Flight Track Log - Related Links

Times and Time Zones

All times are in EDT time to prevent confusion due to time zone crossing. See the N27XP flight status page for this flight to view local times or setup timezone preferences in your user account.

Time Position Orientation Groundspeed Altitude Reporting Facility
EDT Latitude Longitude Course Direction KTS MPH feet Rate Location/Type
14:21 40.4158 -86.9664 256° West 201 231 1,500  Level Chicago Center
14:22 40.4031 -87.0350 256° West 162 186 5,700 2,280 Climbing Chicago Center
14:23 40.3547 -86.9725 135° Southeast 299 344 7,200 2,100 Climbing Chicago Center
14:24 40.3008 -86.8992 134° Southeast 283 326 10,100 3,240 Climbing Chicago Center
14:25 40.2431 -86.8019 128° Southeast 281 323 13,900 2,940 Climbing Chicago Center
14:26 40.1908 -86.7203 130° Southeast 290 334 16,200 2,340 Climbing Chicago Center
14:27 40.1403 -86.6369 128° Southeast 294 338 18,800 2,280 Climbing Chicago Center
14:28 40.1186 -86.6031 130° Southeast 293 337 19,700 2,160 Climbing Indianapolis Center
14:29 40.0539 -86.5092 132° Southeast 294 338 22,200 1,980 Climbing Indianapolis Center
14:30 39.9769 -86.4842 166° South 287 330 23,800 1,080 Climbing Indianapolis Center
14:31 39.8892 -86.4653 171° South 319 367 24,500 1,080 Climbing Indianapolis Center
14:32 39.7947 -86.4389 168° South 347 399 26,100 1,500 Climbing Indianapolis Center
14:33 39.7083 -86.3414 139° Southeast 369 425 27,600 1,380 Climbing Indianapolis Center
14:34 39.6486 -86.2272 124° Southeast 383 441 29,000 1,320 Climbing Indianapolis Center
14:35 39.5931 -86.1139 122° Southeast 381 438 30,400 1,320 Climbing Indianapolis Center
14:36 39.5353 -86.0000 123° Southeast 381 438 31,800 1,440 Climbing Indianapolis Center
14:37 39.4650 -85.8636 124° Southeast 382 440 33,400 1,320 Climbing Indianapolis Center
14:38 39.4072 -85.7500 123° Southeast 380 437 34,600 720 Climbing Indianapolis Center
14:39 39.3486 -85.6347 123° Southeast 384 442 35,000 180 Climbing Indianapolis Center
14:40 39.2836 -85.5103 124° Southeast 415 478 35,000  Level Indianapolis Center
14:41 39.2153 -85.3789 124° Southeast 439 505 35,000  Level Indianapolis Center
14:42 39.1264 -85.2203 126° Southeast 456 525 35,000  Level Indianapolis Center
14:43 39.0444 -85.0953 130° Southeast 459 528 35,000  Level Indianapolis Center
14:44 38.9631 -84.9647 129° Southeast 467 537 35,000  Level Indianapolis Center
14:45 38.8808 -84.8372 130° Southeast 466 536 35,000  Level Indianapolis Center
14:47 38.7942 -84.7142 132° Southeast 465 535 35,000  Level Indianapolis Center
14:48 38.7067 -84.5917 132° Southeast 466 536 35,000  Level Indianapolis Center
14:49 38.6128 -84.4586 132° Southeast 462 532 35,000 60 Level Indianapolis Center
14:50 38.5233 -84.3397 134° Southeast 462 532 35,200 360 Climbing Indianapolis Center
14:51 38.4194 -84.2036 134° Southeast 458 527 35,800 420 Climbing Indianapolis Center
14:52 38.3300 -84.0906 135° Southeast 455 524 36,100 300 Climbing Indianapolis Center
14:53 38.2414 -83.9725 134° Southeast 460 529 36,500 300 Climbing Indianapolis Center
14:54 38.1639 -83.8422 127° Southeast 460 529 36,800 240 Climbing Indianapolis Center
14:55 38.0811 -83.7186 130° Southeast 459 528 37,000 60 Climbing Indianapolis Center
14:56 37.9833 -83.5689 130° Southeast 469 540 37,000  Level Indianapolis Center
14:57 37.8983 -83.4400 130° Southeast 475 547 37,000  Level Indianapolis Center
14:58 37.8153 -83.3119 129° Southeast 473 544 37,000  Level Indianapolis Center
14:59 37.7306 -83.1850 130° Southeast 470 541 37,000  Level Indianapolis Center
15:00 37.6461 -83.0569 130° Southeast 473 544 37,000  Level Indianapolis Center
15:01 37.5608 -82.9317 131° Southeast 470 541 37,000  Level Indianapolis Center
15:02 37.4631 -82.7836 130° Southeast 468 539 37,000  Level Indianapolis Center
15:03 37.3775 -82.6561 130° Southeast 471 542 37,000  Level Indianapolis Center
15:04 37.2917 -82.5297 130° Southeast 472 543 37,000  Level Indianapolis Center
15:05 37.2067 -82.4033 130° Southeast 470 541 37,000  Level Indianapolis Center
15:06 37.1211 -82.2767 130° Southeast 472 543 37,000  Level Indianapolis Center
15:07 37.0344 -82.1508 131° Southeast 474 545 37,000 -660 Level Indianapolis Center
15:08 36.9328 -82.0028 131° Southeast 479 551 35,700 -1,020 Descending Indianapolis Center
15:09 36.8461 -81.8761 131° Southeast 478 550 35,000 -840 Descending Indianapolis Center
15:10 36.7906 -81.7942 130° Southeast 475 547 34,300 -1,680 Descending Atlanta Center
15:11 36.7050 -81.6722 131° Southeast 475 547 32,100 -2,460 Descending Atlanta Center
15:12 36.6147 -81.5403 130° Southeast 469 540 29,400 -2,640 Descending Atlanta Center
15:13 36.5308 -81.4242 132° Southeast 457 526 26,900 -2,460 Descending Atlanta Center
15:14 36.4511 -81.3056 130° Southeast 450 518 24,500 -2,460 Descending Atlanta Center
15:15 36.3694 -81.1897 131° Southeast 445 512 22,000 -2,400 Descending Atlanta Center
15:16 36.2903 -81.1100 141° Southeast 431 496 19,800 -2,280 Descending Atlanta Center
15:17 36.1928 -81.0414 150° Southeast 420 483 17,500 -2,460 Descending Atlanta Center
15:18 36.1092 -80.9494 138° Southeast 410 472 14,900 -2,460 Descending Atlanta Center
15:19 36.0397 -80.8442 129° Southeast 400 460 12,600 -1,320 Descending Atlanta Center
15:21 36.0350 -80.5928 91° East 353 406 11,000 -540 Descending Atlanta Center
15:22 36.0483 -80.4767 82° East 345 397 11,000  Level Atlanta Center
15:23 36.0489 -80.3533 90° East 345 397 11,000  Level Atlanta Center
15:24 35.9919 -80.2661 129° Southeast 330 380 11,000  Level Atlanta Center
15:25 35.9064 -80.1933 145° Southeast 326 375 11,000 -780 Level Atlanta Center
15:26 35.8289 -80.1253 145° Southeast 331 381 9,500 -3,000 Descending Atlanta Center
15:27 35.7519 -80.0622 146° Southeast 338 389 5,000 -1,800 Descending Atlanta Center
15:28 35.6858 -80.0169 151° Southeast 325 374 6,000  Climbing Atlanta Center
15:29 35.6194 -79.9642 147° Southeast 303 349 5,100 -900 Descending Atlanta Center